metlocid,date_time,avg_pressta,stddev_pressta,min_pressta,max_pressta,n_pressta,n_comments
FLMM,1/1/11,983.0424779,4.666662973,975,993,2260,0
FLMM,2/1/11,975.0550595,3.831773768,965,983,2688,0
FLMM,3/1/11,973.858871,7.457413565,959,990,2976,0
FLMM,4/1/11,971.4652778,7.519351618,948,990,2880,0
FLMM,5/1/11,962.7284946,7.312763647,948,977,2976,0
FLMM,6/1/11,969.6638889,7.518014592,959,990,2880,0
FLMM,7/1/11,969.1397849,8.525233913,951,986,2976,0
FLMM,8/1/11,971.2594086,14.00153337,945,1006,2976,0
FLMM,9/1/11,970.9236111,6.585510278,953,983,2880,0
FLMM,10/1/11,964.3924731,8.284309182,946,988,2976,0
FLMM,11/1/11,977.5513889,7.184377576,964,993,2880,0
FLMM,12/1/11,971.230148,4.904149554,962,982,2972,4
FLMM,1/1/12,971.7417619,4.435950477,962,981,2974,2
FLMM,2/1/12,974.262931,7.371940238,960,989,2784,0
FLMM,3/1/12,968.280914,4.048161982,959,976,2976,0
FLMM,4/1/12,964.575,7.613077175,949,978,2880,0
FLMM,5/1/12,965.1518817,9.60852824,941,983,2976,0
FLMM,6/1/12,970.1347222,11.7201318,948,992,2880,0
FLMM,7/1/12,960.5497312,9.903477698,948,989,2976,0
FLMM,8/1/12,963.3172043,7.08793647,948,979,2976,0
FLMM,9/1/12,962.3625,7.237967462,946,983,2880,0
FLMM,10/1/12,963.2204301,6.997319964,948,975,2976,0
FLMM,11/1/12,976.1861111,3.695807659,968,982,2880,0
FLMM,12/1/12,980.6645378,4.145520781,972,990,2975,1
FLMM,1/1/13,979.0067204,5.499820183,967,991,2976,0
FLMM,2/1/13,968.641369,4.794949883,961,976,2688,0
FLMM,3/1/13,962.9408602,5.778592524,950,974,2976,0
FLMM,4/1/13,963.6986111,7.060262471,943,974,2880,0
FLMM,5/1/13,966.6653226,6.446643613,953,982,2976,0
FLMM,6/1/13,974.2611111,9.885549367,956,998,2880,0
FLMM,7/1/13,960.1209677,8.924189611,931,979,2976,0
FLMM,8/1/13,970.2177419,16.42301013,941,1000,2976,0
FLMM,9/1/13,973.8791667,8.033317864,954,995,2880,0
FLMM,10/1/13,967.2016129,6.989620931,949,980,2976,0
FLMM,11/1/13,969.4652778,6.658976548,956,980,2880,0
FLMM,12/1/13,976.5833333,4.917994171,966,986,2976,2626
FLMM,1/1/14,981.0228495,4.653017318,969,990,2976,2976
FLMM,2/1/14,972.6160714,7.40119851,958,993,2688,2688
FLMM,3/1/14,966.5295699,6.378256073,948,980,2976,2976
FLMM,4/1/14,963.025,8.150678089,947,982,2880,2880
FLMM,5/1/14,968.5376344,7.152687335,950,982,2976,2976
FLMM,6/1/14,962.7125,5.72951597,948,974,2880,2880
FLMM,7/1/14,961.7258065,8.752051535,941,978,2976,2976
FLMM,8/1/14,959.5241935,9.107357042,941,977,2976,2976
FLMM,9/1/14,968.6722222,5.459204151,959,983,2880,2880
FLMM,10/1/14,960.344086,10.22726059,940,980,2976,2976
FLMM,11/1/14,972.0847222,4.525383919,959,980,2880,2880
FLMM,12/1/14,972.862811,18.57932717,0,982,2974,2974
FLMM,1/1/15,977.0362903,3.443668195,968,983,2976,2976
FLMM,2/1/15,969.6205357,4.608084449,958,982,2688,2688
FLMM,3/1/15,966.2419355,7.239894294,945,979,2976,2976
FLMM,4/1/15,962.0361111,6.705957507,947,974,2880,2880
FLMM,5/1/15,964.8225806,8.571563747,949,985,2976,2976
FLMM,6/1/15,965.3097222,7.050054941,946,978,2880,2880
FLMM,7/1/15,957.2782258,9.011022737,939,980,2976,2976
FLMM,8/1/15,958.2715054,10.87803467,939,984,2976,2976
FLMM,9/1/15,954.9892361,20.37611494,0,979,2880,2880
FLMM,10/1/15,964.563172,6.194932156,953,981,2976,2976
FLMM,11/1/15,966.2944444,7.042132695,946,978,2880,2880
FLMM,12/1/15,976.0475534,41.38466627,0,995,2902,2902
FLMM,1/1/16,974.0793011,4.456975835,962,987,2976,2976
FLMM,2/1/16,970.7571839,6.236443618,956,985,2784,2784
FLMM,3/1/16,964.3239247,6.31231254,944,978,2976,2976
FLMM,4/1/16,964.4541667,9.75308129,943,984,2880,2880
FLMM,5/1/16,966.4274194,6.596569584,945,981,2976,2976
FLMM,6/1/16,957.9736111,8.649598778,944,983,2880,2880
FLMM,7/1/16,965.5322581,5.82907529,955,978,2976,2976
FLMM,8/1/16,970.5134409,8.759560681,946,988,2976,2976
FLMM,9/1/16,955.3333333,11.5348062,930,980,2880,2880
FLMM,10/1/16,963.1209677,6.076389121,949,977,2976,2976
FLMM,11/1/16,979.2902778,5.08221151,964,991,2880,2880
FLMM,12/1/16,979.2258824,25.68359418,0,988,2975,2975
FLMM,1/1/17,983.6276882,5.720418346,966,993,2976,2976
FLMM,2/1/17,976.7946429,5.355075185,967,988,2688,2688
FLMM,3/1/17,973.3266129,6.854809567,961,989,2976,2976
FLMM,4/1/17,965.9958333,6.258414273,955,983,2880,2880
FLMM,5/1/17,963.2446237,6.555616336,953,979,2976,2976
FLMM,6/1/17,962.5361111,5.627928806,947,973,2880,2880
FLMM,7/1/17,960.7392473,7.991374676,945,982,2976,2976
FLMM,8/1/17,958.280914,8.062469457,942,981,2976,2976
FLMM,9/1/17,959.2652778,8.171174263,942,976,2880,2880
FLMM,10/1/17,967.9018817,6.739906227,948,982,2976,2976
FLMM,11/1/17,965.8664812,5.7494568,956,981,2876,2879
FLMM,12/1/17,974.6895161,4.202804702,967,985,2976,2976
FLMM,1/1/18,976.1948925,5.768735275,965,990,2976,2976
FLMM,2/1/18,971.2752976,5.173875854,959,979,2688,2688
FLMM,3/1/18,970.6384409,8.388366541,953,986,2976,2976
FLMM,4/1/18,970.4833333,8.528382624,953,985,2880,2880
FLMM,5/1/18,964.9099462,7.065310346,950,980,2976,2976
FLMM,6/1/18,969.2041667,9.102327281,945,983,2880,2880
FLMM,7/1/18,964.7956989,9.045390394,937,979,2976,2976
FLMM,8/1/18,970.1317204,8.460295118,950,989,2976,2976
FLMM,9/1/18,956.5125,10.35070259,933,981,2880,2880
FLMM,10/1/18,961.1397849,7.758321084,947,976,2976,2976
FLMM,11/1/18,966.825,5.275060106,956,978,2880,2880
FLMM,12/1/18,975.1009421,4.212054848,965,985,2972,1699
FLMM,1/1/19,976.6491935,5.203675432,966,987,2976,0
FLMM,2/1/19,976.5133929,6.910548612,962,989,2688,0
FLMM,3/1/19,969.9905914,7.168833961,951,985,2976,0
FLMM,4/1/19,965.3180556,6.220691227,953,979,2880,0
FLMM,5/1/19,969.5255376,9.460578253,947,987,2976,0
FLMM,6/1/19,954.9236111,8.201932067,938,982,2880,0
FLMM,7/1/19,970.7459677,8.115716708,951,984,2976,0
FLMM,8/1/19,964.9717742,8.440829722,949,989,2976,0
FLMM,9/1/19,956.3541667,6.44475144,936,970,2880,0
FLMM,10/1/19,965.6303763,9.103502216,942,982,2976,0
FLMM,11/1/19,979.7319444,3.320814456,972,988,2880,0
FLMM,12/1/19,983.9125757,4.58038307,974,993,2974,417
FLMM,1/1/20,981.3185484,3.830615991,974,991,2976,2976
FLMM,2/1/20,973.6307471,4.065949684,964,983,2784,2784
FLMM,3/1/20,962.9879032,5.165742506,953,977,2976,2976
FLMM,4/1/20,965.25,9.101412354,941,982,2880,2880
FLMM,5/1/20,962.2889785,5.502985546,950,973,2976,2976
FLMM,6/1/20,960.5236111,8.930249464,942,988,2880,2880
FLMM,7/1/20,964.9637097,9.639555774,942,993,2976,2976
FLMM,8/1/20,965.6747312,10.03250415,943,984,2976,2976
FLMM,9/1/20,965.0763889,6.312109096,956,989,2880,2880
FLMM,10/1/20,959.2513441,6.118823269,943,972,2976,2976
FLMM,11/1/20,966.4111111,11.16526589,944,981,2880,2880
FLMM,12/1/20,970.6169355,4.431488035,960,984,2976,2976
FLMM,1/1/21,974.0725806,7.030696741,962,993,2976,2976
FLMM,2/1/21,968.1636905,3.190046403,960,975,2688,2688
FLMM,3/1/21,970.7419355,6.533734219,960,983,2976,2976
FLMM,4/1/21,960.4138889,6.356838341,950,977,2880,2880
FLMM,5/1/21,964.2096774,7.923609255,951,983,2976,2976
FLMM,6/1/21,964.2,5.729966081,952,976,2880,2880
FLMM,7/1/21,970.3104839,6.942673132,955,988,2976,2976
FLMM,8/1/21,966.5336022,7.209439186,954,982,2976,2976
FLMM,9/1/21,958.8694444,6.24560731,945,972,2880,2880
FLMM,10/1/21,965.7553763,5.226111364,952,979,2976,2976
FLMM,11/1/21,965.5222222,3.683491036,957,974,2880,2880
FLMM,12/1/21,968.7067922,5.481962067,957,979,2974,2975
FLMM,1/1/22,974.7110215,5.455872743,962,986,2976,2976
FLMM,2/1/22,971.2232143,7.538860284,957,992,2688,2688
FLMM,3/1/22,968.1451613,5.946803119,957,988,2976,2976
FLMM,4/1/22,965.2152778,6.307136273,955,983,2880,2880
FLMM,5/1/22,964.5026882,7.263028942,946,980,2976,2976
FLMM,6/1/22,971.2083333,9.290252299,953,988,2880,2880
FLMM,7/1/22,960.1814516,8.408919157,937,978,2976,2976
FLMM,8/1/22,960.7352151,8.335392788,937,980,2976,2976
FLMM,9/1/22,957.8458333,7.404352475,940,973,2880,2880
FLMM,10/1/22,965.202957,9.047427119,952,986,2976,2976
FLMM,11/1/22,962.8236111,9.915418513,945,985,2880,2880
FLMM,12/1/22,969.2667423,5.949466885,948,979,1762,1762